Location: Ostrava
(49.8330°N, 18.2830°E)
Time: 10:06:46
(UTC+02:00)

Daily predictions for brighter satellites

Satellite Brightness Start Highest point End
(mag) Time Altitude Azimuth Time Altitude Azimuth Time Altitude Azimuth
Cosmos 2082 3.9 20:02:43 10° NNW 20:08:22 81° WSW 20:13:59 10° SSE
Cosmos 2297 Rocket 2.3 20:03:10 10° NNW 20:08:53 83° ENE 20:14:33 10° SSE
Meteor 2-15 Rocket 4.5 20:02:57 10° N 20:09:05 86° E 20:15:10 10° S
CZ-4B DEB 3.4 20:07:19 10° S 20:10:34 61° WSW 20:13:51 10° NNW
Meteor 2-14 Rocket 4.5 20:06:30 10° S 20:12:38 81° E 20:18:49 10° NNE
Meteor 1-5 Rocket 4.1 20:07:25 10° S 20:12:44 74° E 20:18:17 10° NNE
Lacrosse 5 1.9 20:09:32 10° NW 20:14:38 81° NNE 20:19:43 10° ESE
USA 215 3.9 20:08:22 10° E 20:14:40 52° N 20:20:58 10° WNW
ERS-1 Rocket 3.5 20:10:02 10° SE 20:14:45 43° ENE 20:19:30 10° N
Cosmos 2123 Rocket 4.1 20:09:19 10° N 20:15:33 90° ENE 20:21:44 10° S
CZ-2D R/B 3.5 20:14:21 10° S 20:18:13 79° WSW 20:22:09 10° NNW
USA 186 1.5 20:16:12 10° SSE 20:19:15 88° ENE 20:22:06 10° NNW
Cosmos 1898 Rocket 3.7 20:15:03 10° NNW 20:20:20 60° ENE 20:25:33 10° SE
Cosmos 1461 4.4 20:24:24 10° NW 20:28:03 32° WSW 20:31:35 10° S
SPOT 5 3.9 20:23:50 10° ESE 20:28:04 29° ENE 20:32:09 10° N
EO 1 Delta rocket 3.9 20:23:54 10° NNE 20:28:33 75° E 20:33:41 10° S
Cosmos 1939 Rocket 3.4 20:26:51 10° SE 20:30:46 43° ENE 20:34:45 10° N
Cosmos 1346 Rocket 4.1 20:28:55 10° NNW 20:32:41 43° W 20:36:27 10° SSW
Cosmos 1500 3.9 20:29:23 10° SSE 20:32:47 33° E 20:36:13 10° NNE
YAOGAN 11 4.2 20:31:27 10° SSE 20:35:55 68° ENE 20:40:21 10° N
Cosmos 1626 Rocket 3.6 20:33:07 10° N 20:37:34 85° W 20:41:56 10° S
Tiangong 1 2.7 20:35:13 10° WSW 20:37:40 21° S 20:39:32 13° SE
H-2A R/B 2.7 20:35:04 11° SE 20:38:36 35° ENE 20:42:25 10° N
Cosmos 1340 3.7 20:36:15 10° N 20:39:39 30° ENE 20:42:18 14° SE
Cosmos 468 Rocket 4.5 20:36:22 10° SSE 20:41:01 36° ESE 20:45:42 10° NE
Cosmos 1066 Rocket 4.3 20:37:52 10° N 20:43:31 71° ENE 20:49:16 10° SSE
ATLAS CENTAUR R/B 3.9 20:41:58 10° W 20:46:16 28° NNW 20:50:26 10° NNE
Cosmos 1455 Rocket 3.8 20:42:14 10° SSW 20:46:30 57° WNW 20:50:51 10° N
Cosmos 1602 Rocket 3.9 20:42:16 10° NNW 20:46:45 70° W 20:51:09 10° S
YAOGAN 6 3.9 20:46:23 16° ESE 20:48:31 26° ENE 20:51:40 10° N
Cosmos 1758 Rocket 4.5 20:45:01 10° N 20:48:55 30° ENE 20:51:37 16° ESE
Cosmos 1153 Rocket 4.4 20:43:56 10° S 20:50:05 74° E 20:56:14 10° NNE
Cosmos 1697 Rocket 3.0 20:44:54 10° S 20:50:10 42° ESE 20:55:28 10° NE
NOSS 7 (E) 4.5 20:47:24 10° SW 20:50:44 82° NW 20:54:17 10° NE
Cosmos 1814 Rocket 4.5 20:46:15 10° S 20:51:10 39° ESE 20:56:03 10° NE
Cosmos 1515 3.8 20:47:43 10° NNW 20:51:36 79° W 20:55:25 10° S
SJ-11-01 4.3 20:47:10 10° SSE 20:51:52 89° WSW 20:56:35 10° NNW
RESURS DK-1 2.3 20:49:11 10° NNW 20:53:21 84° ENE 20:56:43 15° SSE
Cosmos 2084 4.1 20:49:51 10° NW 20:53:44 48° SW 20:57:29 12° SSE
Cosmos 2278 3.9 20:51:13 10° SSW 20:56:54 77° WNW 21:02:39 10° NNE
SL-16 R/B 4.0 20:59:05 12° E 20:59:05 12° E 21:00:50 10° ENE
Terra 3.8 20:56:59 11° E 20:59:17 15° NE 21:01:55 10° NNE
NOSS 7 (H) 4.3 20:56:51 10° SW 21:00:08 76° SE 21:03:49 10° NE
PSLV R/B 4.2 21:04:03 24° ESE 21:04:58 29° ENE 21:07:42 10° N
Cosmos 1802 Rocket 4.2 20:59:07 10° SSE 21:05:15 52° E 21:11:28 10° NNE
Cosmos 1743 2.9 21:06:13 13° SSE 21:09:31 49° E 21:13:19 10° NNE
ARGOS 3.8 21:07:27 20° ESE 21:10:43 40° ENE 21:15:44 10° N
Cosmos 2369 4.1 21:05:17 10° SW 21:10:57 68° WNW 21:16:40 10° NNE
ASTEX 1 3.9 21:06:37 10° NNE 21:11:23 42° E 21:14:35 19° SSE
Cosmos 1980 Rocket 2.6 21:07:52 10° S 21:13:06 40° ESE 21:18:23 10° NE
CZ-4 DEB 4.1 21:12:13 10° S 21:15:11 37° W 21:18:09 10° NNW
CZ-4 SHROUD 3.9 21:16:33 32° E 21:17:13 36° ENE 21:20:06 10° N
Cosmos 2058 Rocket 3.9 21:16:00 24° SE 21:17:41 32° E 21:21:43 10° NNE
Cosmos 2016 Rocket 4.1 21:13:00 10° SSE 21:18:56 54° E 21:24:58 10° NNE
Cosmos 1937 Rocket 3.9 21:18:53 10° NNW 21:24:05 61° WSW 21:28:29 14° S
Envisat 3.3 21:19:34 10° S 21:24:33 67° WSW 21:29:39 10° NNW
Cosmos 1606 Rocket 3.6 21:21:59 19° SSE 21:25:00 56° E 21:29:23 10° NNE
MetOp-B 4.1 21:22:11 20° SSE 21:25:57 76° ENE 21:31:20 10° NNW
Cosmos 2173 Rocket 4.0 21:25:01 10° S 21:31:24 86° E 21:37:45 10° N
Cosmos 1975 4.4 21:27:48 10° SW 21:31:37 37° WNW 21:35:28 10° N
Cosmos 1842 3.3 21:28:21 10° N 21:32:15 62° ENE 21:33:37 37° SE
Cosmos 2263 Rocket 3.0 21:30:58 10° NNW 21:36:10 38° NE 21:38:44 25° E
H-2A R/B 2.8 21:35:17 27° ESE 21:37:01 34° ENE 21:41:26 10° N
Cosmos 990 Rocket 4.3 21:31:51 10° NNW 21:37:03 63° WSW 21:40:35 20° S
Cosmos 1656 4.0 21:33:46 10° SW 21:39:20 69° WNW 21:44:54 10° NNE
CZ-4B R/B 4.0 21:36:20 10° NNE 21:40:41 34° E 21:41:21 33° ESE
Meteor 1-21 4.5 21:36:18 10° NNW 21:42:04 73° W 21:46:29 18° S
Cosmos 1707 4.5 21:40:27 10° NNE 21:43:18 19° ENE 21:43:18 19° ENE
Cosmos 2100 Rocket 4.2 21:38:24 10° SSW 21:44:40 73° W 21:50:55 10° N
Cosmos 2322 Rocket 2.9 21:45:38 30° ESE 21:45:47 30° ESE 21:50:36 10° NE
Tsikada Rocket 4.0 21:41:51 10° N 21:48:19 76° E 21:51:58 28° SSE
Cosmos 1726 Rocket 3.4 21:46:08 26° S 21:48:34 81° E 21:53:01 10° NNE
Cosmos 2061 Rocket 4.2 21:44:41 10° SSW 21:50:58 72° WNW 21:57:14 10° N
Cosmos 2098 Rocket 3.9 21:46:25 17° S 21:51:50 71° E 21:57:23 10° NNE
Nimbus 7 Rocket 4.5 21:49:10 10° NNE 21:55:15 86° WNW 22:01:21 10° SSW
SPOT 1/Viking Rocket 3.5 21:53:31 32° SSE 21:56:02 88° WSW 22:01:18 10° NNW
Cosmos 2360 4.2 21:51:30 14° S 21:56:26 60° ESE 22:02:06 10° NE
Meteor 2-9 Rocket 4.1 21:54:15 28° S 21:57:11 68° E 22:02:33 10° NNE
Lacrosse 5 3.3 21:52:58 10° WNW 21:57:12 27° SW 21:59:17 20° SSW
Cosmos 1666 2.5 21:56:35 56° S 21:57:17 80° E 22:01:07 10° NNE
Cosmos 1238 4.1 21:54:00 10° N 21:57:16 82° NE 21:57:16 82° NE
USA 215 3.2 21:53:51 30° ESE 21:57:25 88° NNE 22:04:00 10° WNW
Geosat FO 4.5 21:56:41 10° NNE 22:00:23 72° ESE 22:00:38 68° SSE
SL-08 RB Rocket 3.7 22:01:06 45° SSE 22:02:32 83° ENE 22:07:12 10° NNW
SPOT 5 3.8 22:02:45 19° SSW 22:06:00 44° W 22:10:35 10° NNW
Cosmos 1763 Rocket 3.4 22:02:17 11° SSW 22:07:16 88° WNW 22:12:22 10° NNE
Cosmos 1125 Rocket 3.5 22:03:28 10° NNW 22:08:41 78° WSW 22:10:26 43° S
Cosmos 1816 Rocket 4.5 22:04:13 10° N 22:10:38 87° E 22:13:32 35° S
H-2A R/B 3.8 22:12:12 15° SW 22:14:43 26° W 22:18:14 10° NW
Cosmos 1725 Rocket 4.0 22:14:20 24° S 22:18:20 85° W 22:24:39 10° N
IGS 5A 3.7 22:18:47 53° ENE 22:18:47 53° ENE 22:22:51 10° N
Cosmos 332 Rocket 4.2 22:21:22 46° E 22:21:22 46° E 22:25:37 10° NNE
Landsat 7 3.7 22:20:04 58° SSE 22:21:00 87° ENE 22:25:47 10° NNW
YAOGAN 6 4.3 22:20:52 23° SW 22:22:03 28° W 22:25:19 10° NNW
Cosmos 2278 Rocket 4.3 22:18:47 10° N 22:22:27 17° NNE 22:25:44 11° ENE
SL-19 R/B 4.1 22:17:43 10° NNE 22:23:18 84° WNW 22:26:07 29° SSW
Cosmos 371 Rocket 4.4 22:26:08 30° ENE 22:26:08 30° ENE 22:29:11 10° NE
Meteor 2-17 Rocket 4.3 22:24:17 43° S 22:26:21 75° E 22:32:24 10° NNE
Cosmos 2228 3.1 22:27:12 59° SW 22:27:54 74° W 22:32:12 10° N
Cosmos 405 Rocket 2.8 22:25:36 10° NNW 22:29:08 69° WNW 22:29:08 69° WNW
Cosmos 841 Rocket 3.8 22:25:03 14° SW 22:29:37 68° WNW 22:34:50 10° NNE
GP-B 3.3 22:26:15 10° N 22:30:24 57° ENE 22:30:24 57° ENE
Genesis I 3.6 22:28:25 10° NW 22:32:06 55° NNE 22:32:06 55° NNE
CZ-4 R/B 3.7 22:28:54 10° NNE 22:33:40 82° ESE 22:34:12 69° S
Cosmos 1697 Rocket 4.0 22:28:53 10° WSW 22:34:12 40° NW 22:39:32 10° NNE
Terra 1.6 22:35:52 73° SSE 22:36:19 87° ENE 22:41:08 10° NNW
CZ-4C R/B 3.5 22:36:46 74° SW 22:37:02 78° WSW 22:41:27 10° NNW
Okean 3 Rocket 4.0 22:32:47 10° N 22:36:46 50° ENE 22:36:46 50° ENE
SL-16 R/B 2.1 22:40:53 60° SSE 22:41:45 71° ESE 22:47:25 10° NNE
SWAS 4.5 22:43:32 78° NW 22:43:32 78° NW 22:47:53 10° NNE
Cosmos 2233 Rocket 3.9 22:41:34 43° SSW 22:43:48 87° WNW 22:50:06 10° N
Cosmos 540 Rocket 3.3 22:46:25 75° ESE 22:46:29 75° ESE 22:51:38 10° NNE
Cosmos 1844 Rocket 3.7 22:43:36 10° NNW 22:48:42 34° NE 22:49:54 31° ENE
DMSP B5D2-2 4.0 22:43:32 10° NNE 22:48:49 69° ESE 22:48:58 68° ESE
ARGOS 4.3 22:48:57 27° SW 22:51:01 36° W 22:55:59 10° NNW
Cosmos 372 Rocket 4.4 22:49:53 10° NNW 22:54:51 51° WSW 22:55:25 49° SW
Cosmos 1980 Rocket 3.3 22:51:43 10° WSW 22:57:07 42° NW 23:02:33 10° NNE
Cosmos 2360 Rocket 3.1 22:58:52 34° ENE 22:58:52 34° ENE 23:02:43 10° NE
Spot 4 3.8 23:00:22 78° WSW 23:00:22 78° WSW 23:05:10 10° NNW
Cosmos 921 Rocket 4.3 22:59:27 10° N 23:02:59 32° NE 23:02:59 32° NE
Cosmos 2034 Rocket 4.2 23:04:55 51° E 23:05:01 52° E 23:10:59 10° NNE
BREEZE-M DEB (TANK) 4.1 22:53:12 10° WNW 23:07:59 46° SW 23:08:48 44° SSW
Meteor 2-5 Rocket 4.2 23:04:08 10° NNW 23:09:56 57° W 23:11:03 49° SW
In-Cosmos 22 4.5 23:08:17 10° N 23:13:36 52° ENE 23:13:36 52° ENE
Cosmos 1092 Rocket 4.5 23:09:43 10° N 23:15:49 46° ENE 23:16:22 45° E
H-2A R/B 2.9 23:15:55 36° WSW 23:16:25 37° W 23:20:59 10° NNW
Cosmos 2219 Rocket 4.3 23:20:55 13° ENE 23:20:55 13° ENE 23:21:55 10° ENE
Cosmos 1707 4.2 23:15:46 10° NNW 23:18:33 36° NW 23:18:33 36° NW
Cosmos 2263 Rocket 2.8 23:14:57 10° NW 23:20:11 43° WSW 23:20:25 43° WSW
Cosmos 1076 Rocket 4.4 23:18:13 10° N 23:21:17 46° N 23:21:17 46° N
Cosmos 1464 Rocket 3.9 23:27:20 70° SSW 23:28:10 86° WNW 23:34:34 10° N
Cosmos 2322 Rocket 2.8 23:27:23 34° WSW 23:29:34 54° NW 23:35:06 10° NNE
Meteor 1-24 Rocket 3.9 23:24:16 10° NNW 23:30:17 66° W 23:30:48 63° SW
Cosmos 1513 Rocket 4.3 23:30:49 80° SSE 23:31:10 84° E 23:37:29 10° N
Cosmos 2322 3.9 23:33:06 59° ENE 23:33:06 59° ENE 23:37:54 10° NNE
Cosmos 1766 Rocket 4.4 23:28:37 10° N 23:32:01 50° N 23:32:01 50° N
GEOS 3 Rocket 3.7 23:30:57 10° NE 23:36:04 70° NW 23:36:32 65° W
Cosmos 1538 Rocket 4.2 23:37:40 70° NNE 23:37:40 70° NNE 23:42:26 10° NNE
Cosmos 2237 Rocket 4.4 23:39:44 13° ENE 23:39:44 13° ENE 23:40:47 10° ENE
Cosmos 2333 Rocket 4.3 23:39:44 15° ENE 23:39:44 15° ENE 23:41:25 10° ENE
Nadezhda 4 Rocket 3.8 23:33:59 10° N 23:40:21 85° E 23:40:39 81° SE
USA 215 4.0 23:41:12 35° SW 23:41:12 35° SW 23:46:50 10° WNW
Lacrosse 4 Rocket 3.5 23:49:21 21° NE 23:49:21 21° NE 23:50:58 10° NE
COSMOS 2428 3.5 23:55:02 41° ENE 23:55:02 41° ENE 23:59:02 10° NE
CZ-4B R/B 4.0 23:57:08 21° N 23:57:08 21° N 23:58:33 10° N
